Overview Statistics Trail Chart Weather Telemetry Raw packets
 

This is the latest recevied weather packets stored in our database for station/object G4KVI. If no packets are shown the sender has not sent any weather packets the latest 10 day(s).

<< 38 39 40 41 42 43 44 >>
Time Temp. Humidity Pressure Rain* Wind** Luminosity Snow
1788334504 16.67° C 89% 1020.8 hPa 0 mm - 41 W/m² -
1788334204 16.67° C 89% 1020.8 hPa 0 mm - 32 W/m² -
1788333904 16.67° C 89% 1021.1 hPa 0 mm - 42 W/m² -
1788333604 16.11° C 90% 1021.2 hPa 0 mm - 41 W/m² -
1788333304 16.11° C 90% 1021.2 hPa 0 mm - 54 W/m² -
1788333004 16.11° C 90% 1021.1 hPa 0 mm - 37 W/m² -
1788332704 16.11° C 90% 1021 hPa 0 mm - 31 W/m² -
1788332404 16.11° C 89% 1021 hPa 0 mm - 37 W/m² -
1788332104 16.11° C 89% 1021 hPa 0 mm - 32 W/m² -
1788331804 16.11° C 89% 1021 hPa 0 mm - 33 W/m² -
1788331504 16.11° C 89% 1021.2 hPa 0 mm - 40 W/m² -
1788331204 16.11° C 88% 1021.2 hPa 0 mm - 52 W/m² -
1788330904 16.11° C 88% 1020.7 hPa 0 mm - 25 W/m² -
1788330604 16.11° C 88% 1020.6 hPa 0 mm - 25 W/m² -
1788330304 16.11° C 88% 1020.9 hPa 0 mm - 18 W/m² -
1788330004 16.11° C 88% 1020.6 hPa 0 mm - 19 W/m² -
1788329704 16.11° C 89% 1020.6 hPa 0 mm - 31 W/m² -
1788329404 15.56° C 89% 1020.9 hPa 0 mm - 32 W/m² -
1788329104 15.56° C 89% 1020.8 hPa 0 mm - 19 W/m² -
1788328804 15.56° C 89% 1020.9 hPa 0 mm - 15 W/m² -
1788328504 15.56° C 89% 1020.8 hPa 0 mm - 13 W/m² -
1788328204 15.56° C 89% 1020.8 hPa 0 mm - 10 W/m² -
1788327904 15.56° C 89% 1020.8 hPa 0 mm - 10 W/m² -
1788327604 15.56° C 90% 1020.6 hPa 0 mm - 8 W/m² -
1788327304 15.56° C 90% 1020.7 hPa 0 mm - 7 W/m² -

* Rain latest hour (hover to see other rain measurements)
** Current wind speed in m/s (hover to see current wind gust speed)